TimeCDT,TemperatureF,Dew PointF,Humidity,Sea Level PressureIn,VisibilityMPH,Wind Direction,Wind SpeedMPH,Gust SpeedMPH,PrecipitationIn,Events,Conditions,WindDirDegrees,DateUTC
12:51 AM,35.1,24.1,64,30.43,10.0,East,5.8,-,N/A,,Partly Cloudy,90,2013-04-21 05:51:00
1:51 AM,34.0,25.0,70,30.44,10.0,East,6.9,-,N/A,,Clear,100,2013-04-21 06:51:00
2:51 AM,35.1,24.1,64,30.45,10.0,ESE,8.1,-,N/A,,Partly Cloudy,120,2013-04-21 07:51:00
3:51 AM,33.1,23.0,66,30.47,10.0,SE,6.9,-,N/A,,Partly Cloudy,130,2013-04-21 08:51:00
4:51 AM,28.9,24.1,82,30.47,10.0,SSE,8.1,-,N/A,,Scattered Clouds,150,2013-04-21 09:51:00
5:51 AM,30.9,23.0,72,30.49,10.0,SE,8.1,-,N/A,,Scattered Clouds,140,2013-04-21 10:51:00
6:51 AM,34.0,21.9,61,30.51,10.0,SSE,9.2,-,N/A,,Mostly Cloudy,150,2013-04-21 11:51:00
7:51 AM,36.0,19.9,52,30.52,10.0,SE,10.4,-,N/A,,Mostly Cloudy,140,2013-04-21 12:51:00
8:51 AM,39.0,19.0,45,30.52,10.0,SE,15.0,-,N/A,,Mostly Cloudy,140,2013-04-21 13:51:00
9:51 AM,43.0,19.0,38,30.52,10.0,SE,10.4,-,N/A,,Mostly Cloudy,130,2013-04-21 14:51:00
10:51 AM,44.1,21.9,42,30.51,10.0,SSE,13.8,-,N/A,,Mostly Cloudy,160,2013-04-21 15:51:00
11:51 AM,46.9,23.0,39,30.50,10.0,South,11.5,17.3,N/A,,Mostly Cloudy,170,2013-04-21 16:51:00
12:51 PM,48.9,23.0,36,30.46,10.0,SSE,12.7,20.7,N/A,,Mostly Cloudy,160,2013-04-21 17:51:00
1:51 PM,52.0,25.0,35,30.42,10.0,SE,17.3,-,N/A,,Scattered Clouds,140,2013-04-21 18:51:00
2:51 PM,53.1,26.1,35,30.39,10.0,SE,12.7,20.7,N/A,,Scattered Clouds,130,2013-04-21 19:51:00
3:51 PM,54.0,28.0,37,30.36,10.0,SSE,15.0,-,N/A,,Scattered Clouds,150,2013-04-21 20:51:00
4:51 PM,54.0,27.0,35,30.35,10.0,SSE,13.8,-,N/A,,Scattered Clouds,160,2013-04-21 21:51:00
5:51 PM,53.1,27.0,37,30.34,10.0,SSE,12.7,-,N/A,,Scattered Clouds,150,2013-04-21 22:51:00
6:51 PM,51.1,28.0,41,30.34,10.0,SSE,15.0,-,N/A,,Scattered Clouds,160,2013-04-21 23:51:00
7:51 PM,48.0,30.0,50,30.34,10.0,SSE,11.5,-,N/A,,Scattered Clouds,160,2013-04-22 00:51:00
8:51 PM,46.9,30.0,52,30.35,10.0,SSE,11.5,-,N/A,,Partly Cloudy,160,2013-04-22 01:51:00
9:51 PM,46.9,30.0,52,30.35,10.0,SSE,10.4,-,N/A,,Scattered Clouds,160,2013-04-22 02:51:00
10:51 PM,46.0,30.0,54,30.34,10.0,SSE,13.8,-,N/A,,Scattered Clouds,160,2013-04-22 03:51:00
11:51 PM,45.0,30.0,56,30.33,10.0,SSE,11.5,-,N/A,,Scattered Clouds,160,2013-04-22 04:51:00